Year,Month,Day,Hour,Minute,Value (Times are PST for temperature in C)
2011,09,14,10,28,15.30
2011,09,14,11,33,14.80
2011,09,14,11,34,14.80
2011,09,14,11,35,14.80
2011,09,14,11,36,14.80
2011,09,14,11,37,14.80
2011,09,14,11,38,14.80
2011,09,14,11,39,14.80
2011,09,14,11,40,14.80
2011,09,14,11,41,14.80
2011,09,14,11,42,14.80
2011,09,14,11,43,14.90
2011,09,14,11,44,14.90
2011,09,14,11,45,14.90
2011,09,14,11,46,14.90
2011,09,14,11,47,14.90
2011,09,14,11,48,15.00
2011,09,14,11,49,15.00
2011,09,14,11,50,15.00
2011,09,14,11,51,15.00
2011,09,14,11,52,15.00
2011,09,14,11,53,15.00
2011,09,14,11,54,15.00
2011,09,14,11,55,15.00
2011,09,14,11,56,15.00
2011,09,14,11,57,15.00
2011,09,14,11,58,15.00
2011,09,14,11,59,15.00
2011,09,14,12,00,15.00
2011,09,14,12,01,15.00
2011,09,14,12,02,14.80
2011,09,14,12,03,14.80
2011,09,14,12,04,14.80
2011,09,14,12,05,14.90
2011,09,14,12,06,14.90
2011,09,14,12,07,15.00
2011,09,14,12,08,15.00
2011,09,14,12,09,15.00
2011,09,14,12,10,15.00
2011,09,14,12,11,15.20
2011,09,14,12,12,15.30
2011,09,14,12,13,15.40
2011,09,14,12,14,15.50
2011,09,14,12,15,15.60
2011,09,14,12,16,15.70
2011,09,14,12,17,15.70
2011,09,14,12,18,15.80
2011,09,14,12,19,15.90
2011,09,14,12,20,15.90
2011,09,14,12,21,15.90
2011,09,14,12,22,15.80
2011,09,14,12,23,15.80
2011,09,14,12,24,15.80
2011,09,14,12,25,15.80
2011,09,14,12,26,15.80
2011,09,14,12,27,15.80
2011,09,14,12,28,15.80
2011,09,14,12,29,15.70
2011,09,14,12,30,15.70
2011,09,14,12,31,15.70
2011,09,14,12,32,15.70
2011,09,14,12,33,15.60
2011,09,14,12,34,15.60
2011,09,14,12,35,15.50
2011,09,14,12,36,15.50
2011,09,14,12,37,15.50
2011,09,14,12,38,15.60
2011,09,14,12,39,15.60
2011,09,14,12,40,15.50
2011,09,14,12,41,15.50
2011,09,14,12,42,15.50
2011,09,14,12,43,15.40
2011,09,14,12,44,15.40
2011,09,14,12,45,15.40
2011,09,14,12,46,15.40
2011,09,14,12,47,15.40
2011,09,14,12,48,15.40
2011,09,14,12,49,15.40
2011,09,14,12,50,15.30
2011,09,14,12,51,15.30
2011,09,14,12,52,15.30
2011,09,14,12,53,15.40
2011,09,14,12,54,15.40
2011,09,14,12,55,15.40
2011,09,14,12,56,15.40
2011,09,14,12,57,15.40
2011,09,14,12,58,15.40
2011,09,14,12,59,15.50
2011,09,14,13,00,15.50
2011,09,14,13,01,15.60
2011,09,14,13,02,15.60
2011,09,14,13,03,15.60
2011,09,14,13,04,15.70
2011,09,14,13,05,15.70
2011,09,14,13,06,15.70
2011,09,14,13,07,15.70
2011,09,14,13,08,15.70
2011,09,14,13,09,15.70
2011,09,14,13,10,15.70
2011,09,14,13,11,15.70
2011,09,14,13,12,15.70
2011,09,14,13,13,15.70
2011,09,14,13,14,15.70
2011,09,14,13,15,15.50
2011,09,14,13,16,15.30
2011,09,14,13,17,15.00
2011,09,14,13,18,14.90
2011,09,14,13,19,14.70
2011,09,14,13,20,14.50
2011,09,14,13,21,14.40
2011,09,14,13,22,14.30
2011,09,14,13,23,14.20
2011,09,14,13,24,14.10
2011,09,14,13,25,13.90
2011,09,14,13,26,13.80
2011,09,14,13,27,13.70
2011,09,14,13,28,13.60
2011,09,14,13,29,13.50
2011,09,14,13,30,13.40
2011,09,14,13,31,13.20
2011,09,14,13,32,13.20
2011,09,14,13,33,13.10
2011,09,14,13,34,13.10
2011,09,14,13,35,13.10
2011,09,14,13,36,13.00
2011,09,14,13,37,12.90
2011,09,14,13,38,12.80
2011,09,14,13,39,12.80
2011,09,14,13,40,12.80
2011,09,14,13,41,12.80
2011,09,14,13,42,12.80
2011,09,14,13,43,12.80
2011,09,14,13,44,12.90
2011,09,14,13,45,12.90
2011,09,14,13,46,12.90
2011,09,14,13,47,12.90
2011,09,14,13,48,12.90
2011,09,14,13,49,12.90
2011,09,14,13,50,13.00
2011,09,14,13,51,13.00
2011,09,14,13,52,13.10
2011,09,14,13,53,13.20
2011,09,14,13,54,13.10
2011,09,14,13,55,13.10
2011,09,14,13,56,13.10
2011,09,14,13,57,13.10
2011,09,14,13,58,13.10
2011,09,14,13,59,13.20
2011,09,14,14,00,13.20
2011,09,14,14,01,13.20
2011,09,14,14,02,13.20
2011,09,14,14,03,13.20
2011,09,14,14,04,13.20
2011,09,14,14,05,13.30
2011,09,14,14,06,13.30
2011,09,14,14,07,13.30
2011,09,14,14,08,13.30
2011,09,14,14,09,13.40
2011,09,14,14,10,13.50
2011,09,14,14,11,13.50
2011,09,14,14,12,13.50
2011,09,14,14,13,13.50
2011,09,14,14,14,13.40
2011,09,14,14,15,13.30
2011,09,14,14,16,13.30
2011,09,14,14,17,13.30
2011,09,14,14,18,13.30
2011,09,14,14,19,13.30
2011,09,14,14,20,13.40
2011,09,14,14,21,13.40
2011,09,14,14,22,13.40
2011,09,14,14,23,13.40
2011,09,14,14,24,13.40
2011,09,14,14,25,13.50
2011,09,14,14,26,13.50
2011,09,14,14,27,13.60
2011,09,14,14,28,13.60
2011,09,14,14,29,13.60
2011,09,14,14,30,13.60
2011,09,14,14,31,13.60
2011,09,14,14,32,13.60
2011,09,14,14,33,13.60
2011,09,14,14,34,13.60
2011,09,14,14,35,13.60
2011,09,14,14,36,13.60
2011,09,14,14,37,13.60
2011,09,14,14,38,13.60
2011,09,14,14,39,13.60
2011,09,14,14,40,13.60
2011,09,14,14,41,13.60
2011,09,14,14,42,13.60
2011,09,14,14,43,13.60
2011,09,14,14,44,13.70
2011,09,14,14,45,13.70
2011,09,14,14,46,13.80
2011,09,14,14,47,13.80
2011,09,14,14,48,13.80
2011,09,14,14,49,13.80
2011,09,14,14,50,13.90
2011,09,14,14,51,13.90
2011,09,14,14,52,13.90
2011,09,14,14,53,13.90
2011,09,14,14,54,13.90
2011,09,14,14,55,13.80
2011,09,14,14,56,13.70
2011,09,14,14,57,13.60
2011,09,14,14,58,13.60
2011,09,14,14,59,13.60
2011,09,14,15,00,13.50
2011,09,14,15,01,13.50
2011,09,14,15,02,13.40
2011,09,14,15,03,13.40
2011,09,14,15,04,13.40
2011,09,14,15,05,13.40
2011,09,14,15,06,13.40
2011,09,14,15,07,13.30
2011,09,14,15,08,13.20
2011,09,14,15,09,13.20
2011,09,14,15,10,13.10
2011,09,14,15,11,13.00
2011,09,14,15,12,12.90
2011,09,14,15,13,12.90
2011,09,14,15,14,12.80
2011,09,14,15,15,12.80
2011,09,14,15,16,12.80
2011,09,14,15,17,12.70
2011,09,14,15,18,12.70
2011,09,14,15,19,12.60
2011,09,14,15,20,12.50
2011,09,14,15,21,12.50
2011,09,14,15,22,12.40
2011,09,14,15,23,12.40
2011,09,14,15,24,12.40
2011,09,14,15,25,12.40
2011,09,14,15,26,12.40
2011,09,14,15,27,12.40
2011,09,14,15,28,12.50
2011,09,14,15,29,12.60
2011,09,14,15,30,12.60
2011,09,14,15,31,12.70
2011,09,14,15,32,12.70
2011,09,14,15,33,12.70
2011,09,14,15,34,12.70
2011,09,14,15,35,12.70
2011,09,14,15,36,12.80
2011,09,14,15,37,12.80
2011,09,14,15,38,12.80
2011,09,14,15,39,12.90
2011,09,14,15,40,12.90
2011,09,14,15,41,12.90
2011,09,14,15,42,12.90
2011,09,14,15,43,12.90
2011,09,14,15,44,12.90
2011,09,14,15,45,12.90
2011,09,14,15,46,13.00
2011,09,14,15,47,13.00
2011,09,14,15,48,13.10
2011,09,14,15,49,13.10
2011,09,14,15,50,13.20
2011,09,14,15,51,13.20
2011,09,14,15,52,13.30
2011,09,14,15,53,13.40
2011,09,14,15,54,13.50
2011,09,14,15,55,13.50
2011,09,14,15,56,13.60
2011,09,14,15,57,13.60
2011,09,14,15,58,13.70
2011,09,14,15,59,13.70
2011,09,14,16,00,13.70
2011,09,14,16,01,13.70
2011,09,14,16,02,13.80
2011,09,14,16,03,13.80
2011,09,14,16,04,13.80
2011,09,14,16,05,13.80
2011,09,14,16,06,13.90
2011,09,14,16,07,13.90
2011,09,14,16,08,13.90
2011,09,14,16,09,13.90
2011,09,14,16,10,14.00
2011,09,14,16,11,14.00
2011,09,14,16,12,14.00
2011,09,14,16,13,14.10
2011,09,14,16,14,14.10
2011,09,14,16,15,14.10
2011,09,14,16,16,14.10
2011,09,14,16,17,14.10
2011,09,14,16,18,14.10
2011,09,14,16,19,14.10
2011,09,14,16,20,14.10
2011,09,14,16,21,14.20
2011,09,14,16,22,14.20
2011,09,14,16,23,14.10
2011,09,14,16,24,14.10
2011,09,14,16,25,14.10
2011,09,14,16,26,14.10
2011,09,14,16,27,14.20
2011,09,14,16,28,14.20
2011,09,14,16,29,14.20
2011,09,14,16,30,14.20
2011,09,14,16,31,14.30
2011,09,14,16,32,14.30
2011,09,14,16,33,14.30
2011,09,14,16,34,14.30
2011,09,14,16,35,14.40
2011,09,14,16,36,14.40
2011,09,14,16,37,14.40
2011,09,14,16,38,14.40
2011,09,14,16,39,14.50
2011,09,14,16,40,14.50
2011,09,14,16,41,14.50
2011,09,14,16,42,14.60
2011,09,14,16,43,14.60
2011,09,14,16,44,14.70
2011,09,14,16,45,14.70
2011,09,14,16,46,14.70
2011,09,14,16,47,14.70
2011,09,14,16,48,14.70
2011,09,14,16,49,14.70
2011,09,14,16,50,14.80
2011,09,14,16,51,14.80
2011,09,14,16,52,14.80
2011,09,14,16,53,14.80
2011,09,14,16,54,14.80
2011,09,14,16,55,14.80
2011,09,14,16,56,14.80
2011,09,14,16,57,14.80
2011,09,14,16,58,14.80
2011,09,14,16,59,14.90
2011,09,14,17,00,14.90
2011,09,14,17,01,14.90
2011,09,14,17,02,14.90
2011,09,14,17,03,14.80
2011,09,14,17,04,14.70
2011,09,14,17,05,14.60
2011,09,14,17,06,14.40
2011,09,14,17,07,14.30
2011,09,14,17,08,14.10
2011,09,14,17,09,13.90
2011,09,14,17,10,13.70
2011,09,14,17,11,13.50
2011,09,14,17,12,13.30
2011,09,14,17,13,13.20
2011,09,14,17,14,13.10
2011,09,14,17,15,13.00
2011,09,14,17,16,12.90
2011,09,14,17,17,12.80
2011,09,14,17,18,12.80
2011,09,14,17,19,12.80
2011,09,14,17,20,12.80
2011,09,14,17,21,12.80
2011,09,14,17,22,12.80
2011,09,14,17,23,12.80
2011,09,14,17,24,12.80
2011,09,14,17,25,12.80
2011,09,14,17,26,12.90
2011,09,14,17,27,12.90
2011,09,14,17,28,12.90
2011,09,14,17,29,12.80
2011,09,14,17,30,12.80
2011,09,14,17,31,12.80
2011,09,14,17,32,12.80
2011,09,14,17,33,12.80
2011,09,14,17,34,12.80
2011,09,14,17,35,12.80
2011,09,14,17,36,12.80
2011,09,14,17,37,12.80
2011,09,14,17,38,12.70
2011,09,14,17,39,12.70
2011,09,14,17,40,12.70
2011,09,14,17,41,12.70
2011,09,14,17,42,12.60
2011,09,14,17,43,12.60
2011,09,14,17,44,12.60
2011,09,14,17,45,12.60
2011,09,14,17,46,12.60
2011,09,14,17,47,12.60
2011,09,14,17,48,12.60
2011,09,14,17,49,12.60
2011,09,14,17,50,12.60
2011,09,14,17,51,12.60
2011,09,14,17,52,12.50
2011,09,14,17,53,12.50
2011,09,14,17,54,12.50
2011,09,14,17,55,12.50
2011,09,14,17,56,12.40
2011,09,14,17,57,12.40
2011,09,14,17,58,12.40
2011,09,14,17,59,12.40
2011,09,14,18,00,12.40
2011,09,14,18,01,12.30
2011,09,14,18,02,12.30
2011,09,14,18,03,12.40
2011,09,14,18,04,12.40
2011,09,14,18,05,12.30
2011,09,14,18,06,12.30
2011,09,14,18,07,12.30
2011,09,14,18,08,12.30
2011,09,14,18,09,12.30
2011,09,14,18,10,12.20
2011,09,14,18,11,12.20
2011,09,14,18,12,12.20
2011,09,14,18,13,12.20
2011,09,14,18,14,12.20
2011,09,14,18,15,12.20
2011,09,14,18,16,12.20
2011,09,14,18,17,12.20
2011,09,14,18,18,12.20
2011,09,14,18,19,12.20
2011,09,14,18,20,12.20
2011,09,14,18,21,12.30
2011,09,14,18,22,12.30
2011,09,14,18,23,12.30
2011,09,14,18,24,12.30
2011,09,14,18,25,12.30
2011,09,14,18,26,12.30
2011,09,14,18,27,12.30
2011,09,14,18,28,12.40
2011,09,14,18,29,12.40
2011,09,14,18,30,12.40
2011,09,14,18,31,12.40
2011,09,14,18,32,12.40
2011,09,14,18,33,12.40
2011,09,14,18,34,12.40
2011,09,14,18,35,12.30
2011,09,14,18,36,12.30
2011,09,14,18,37,12.20
2011,09,14,18,38,12.20
2011,09,14,18,39,12.20
2011,09,14,18,40,12.20
2011,09,14,18,41,12.20
2011,09,14,18,42,12.10
2011,09,14,18,43,12.10
2011,09,14,18,44,12.10
2011,09,14,18,45,12.10
2011,09,14,18,46,12.10
2011,09,14,18,47,12.00
2011,09,14,18,48,12.00
2011,09,14,18,49,12.00
2011,09,14,18,50,12.00
2011,09,14,18,51,11.90
2011,09,14,18,52,11.90
2011,09,14,18,53,11.90
2011,09,14,18,54,11.90
2011,09,14,18,55,11.90
2011,09,14,18,56,11.80
2011,09,14,18,57,11.90
2011,09,14,18,58,11.90
2011,09,14,18,59,11.90
2011,09,14,19,00,11.90
2011,09,14,19,01,11.90
2011,09,14,19,02,11.90
2011,09,14,19,03,11.90
2011,09,14,19,04,11.90
2011,09,14,19,05,11.90
2011,09,14,19,06,11.90
2011,09,14,19,07,11.90
2011,09,14,19,08,11.90
2011,09,14,19,09,11.90
2011,09,14,19,10,11.90
2011,09,14,19,11,11.90
2011,09,14,19,12,11.90
2011,09,14,19,13,11.90
2011,09,14,19,14,11.90
2011,09,14,19,15,11.90
2011,09,14,19,16,11.90
2011,09,14,19,17,11.90
2011,09,14,19,18,11.90
2011,09,14,19,19,11.90
2011,09,14,19,20,11.90
2011,09,14,19,21,11.90
2011,09,14,19,22,11.90
2011,09,14,19,23,11.90
2011,09,14,19,24,11.90
2011,09,14,19,25,11.90
2011,09,14,19,26,11.90
2011,09,14,19,27,11.90
2011,09,14,19,28,11.90
2011,09,14,19,29,11.90
2011,09,14,19,30,11.90
2011,09,14,19,31,11.90
2011,09,14,19,32,11.90
2011,09,14,19,33,11.90
2011,09,14,19,34,11.90
2011,09,14,19,35,11.90
2011,09,14,19,36,11.90
2011,09,14,19,37,11.90
2011,09,14,19,38,11.90
2011,09,14,19,39,11.90
2011,09,14,19,40,12.00
2011,09,14,19,41,12.00
2011,09,14,19,42,12.00
2011,09,14,19,43,12.10
2011,09,14,19,44,12.10
2011,09,14,19,45,12.10
2011,09,14,19,46,12.10
2011,09,14,19,47,12.20
2011,09,14,19,48,12.20
2011,09,14,19,49,12.30
2011,09,14,19,50,12.30
2011,09,14,19,51,12.30
2011,09,14,19,52,12.40
2011,09,14,19,53,12.40
2011,09,14,19,54,12.50
2011,09,14,19,55,12.50
2011,09,14,19,56,12.50
2011,09,14,19,57,12.60
2011,09,14,19,58,12.60
2011,09,14,19,59,12.60
2011,09,14,20,00,12.60
2011,09,14,20,01,12.70
2011,09,14,20,02,12.70
2011,09,14,20,03,12.70
2011,09,14,20,04,12.70
2011,09,14,20,05,12.70
2011,09,14,20,06,12.80
2011,09,14,20,07,12.80
2011,09,14,20,08,12.90
2011,09,14,20,09,12.90
2011,09,14,20,10,13.00
2011,09,14,20,11,13.00
2011,09,14,20,12,13.10
2011,09,14,20,13,13.10
2011,09,14,20,14,13.10
2011,09,14,20,15,13.10
2011,09,14,20,16,13.10
2011,09,14,20,17,13.10
2011,09,14,20,18,13.10
2011,09,14,20,19,13.10
2011,09,14,20,20,13.20
2011,09,14,20,21,13.20
2011,09,14,20,22,13.20
2011,09,14,20,23,13.20
2011,09,14,20,24,13.30
2011,09,14,20,25,13.30
2011,09,14,20,26,13.30
2011,09,14,20,27,13.30
2011,09,14,20,28,13.30
2011,09,14,20,29,13.30
2011,09,14,20,30,13.30
2011,09,14,20,31,13.30
2011,09,14,20,32,13.30
2011,09,14,20,33,13.30
2011,09,14,20,34,13.30
2011,09,14,20,35,13.30
2011,09,14,20,36,13.40
2011,09,14,20,37,13.40
2011,09,14,20,38,13.40
2011,09,14,20,39,13.50
2011,09,14,20,40,13.50
2011,09,14,20,41,13.60
2011,09,14,20,42,13.60
2011,09,14,20,43,13.60
2011,09,14,20,44,13.60
2011,09,14,20,45,13.70
2011,09,14,20,46,13.70
2011,09,14,20,47,13.70
2011,09,14,20,48,13.70
2011,09,14,20,49,13.70
2011,09,14,20,50,13.70
2011,09,14,20,51,13.70
2011,09,14,20,52,13.70
2011,09,14,20,53,13.70
2011,09,14,20,54,13.80
2011,09,14,20,55,13.80
2011,09,14,20,56,13.80
2011,09,14,20,57,13.80
2011,09,14,20,58,13.80
2011,09,14,20,59,13.80
2011,09,14,21,00,13.90
2011,09,14,21,01,13.90
2011,09,14,21,02,13.90
2011,09,14,21,03,13.90
2011,09,14,21,04,13.90
2011,09,14,21,05,13.90
2011,09,14,21,06,13.90
2011,09,14,21,07,13.90
2011,09,14,21,08,13.90
2011,09,14,21,09,13.90
2011,09,14,21,10,13.90
2011,09,14,21,11,13.90
2011,09,14,21,12,14.00
2011,09,14,21,13,14.00
2011,09,14,21,14,14.00
2011,09,14,21,15,14.00
2011,09,14,21,16,14.00
2011,09,14,21,17,14.00
2011,09,14,21,18,14.00
2011,09,14,21,19,14.10
2011,09,14,21,20,14.10
2011,09,14,21,21,14.10
2011,09,14,21,22,14.10
2011,09,14,21,23,14.10
2011,09,14,21,24,14.10
2011,09,14,21,25,14.10
2011,09,14,21,26,14.10
2011,09,14,21,27,14.10
2011,09,14,21,28,14.10
2011,09,14,21,29,14.10
2011,09,14,21,30,14.10
2011,09,14,21,31,14.10
2011,09,14,21,32,14.20
2011,09,14,21,33,14.20
2011,09,14,21,34,14.20
2011,09,14,21,35,14.20
2011,09,14,21,36,14.20
2011,09,14,21,37,14.10
2011,09,14,21,38,14.10
2011,09,14,21,39,14.10
2011,09,14,21,40,14.10
2011,09,14,21,41,14.20
2011,09,14,21,42,14.20
2011,09,14,21,43,14.20
2011,09,14,21,44,14.20
2011,09,14,21,45,14.20
2011,09,14,21,46,14.20
2011,09,14,21,47,14.20
2011,09,14,21,48,14.20
2011,09,14,21,49,14.20
2011,09,14,21,50,14.20
2011,09,14,21,51,14.20
2011,09,14,21,52,14.20
2011,09,14,21,53,14.20
2011,09,14,21,54,14.20
2011,09,14,21,55,14.20
2011,09,14,21,56,14.20
2011,09,14,21,57,14.20
2011,09,14,21,58,14.20
2011,09,14,21,59,14.20
2011,09,14,22,00,14.20
2011,09,14,22,01,14.20
2011,09,14,22,02,14.10
2011,09,14,22,03,14.10
2011,09,14,22,04,14.10
2011,09,14,22,05,14.10
2011,09,14,22,06,14.10
2011,09,14,22,07,14.10
2011,09,14,22,08,14.10
2011,09,14,22,09,14.10
2011,09,14,22,10,14.10
2011,09,14,22,11,14.10
2011,09,14,22,12,14.10
2011,09,14,22,13,14.00
2011,09,14,22,14,14.00
2011,09,14,22,15,14.00
2011,09,14,22,16,14.00
2011,09,14,22,17,14.00
2011,09,14,22,18,13.90
2011,09,14,22,19,13.90
2011,09,14,22,20,13.90
2011,09,14,22,21,13.90
2011,09,14,22,22,13.90
2011,09,14,22,23,13.90
2011,09,14,22,24,13.90
2011,09,14,22,25,13.90
2011,09,14,22,26,13.90
2011,09,14,22,27,13.90
2011,09,14,22,28,13.90
2011,09,14,22,29,13.90
2011,09,14,22,30,13.90
2011,09,14,22,31,13.90
2011,09,14,22,32,13.90
2011,09,14,22,33,13.90
2011,09,14,22,34,13.80
2011,09,14,22,35,13.80
2011,09,14,22,36,13.80
2011,09,14,22,37,13.80
2011,09,14,22,38,13.80
2011,09,14,22,39,13.80
2011,09,14,22,40,13.80
2011,09,14,22,41,13.70
2011,09,14,22,42,13.70
2011,09,14,22,43,13.70
2011,09,14,22,44,13.70
2011,09,14,22,45,13.60
2011,09,14,22,46,13.60
2011,09,14,22,47,13.60
2011,09,14,22,48,13.60
2011,09,14,22,49,13.60
2011,09,14,22,50,13.60
2011,09,14,22,51,13.50
2011,09,14,22,52,13.50
2011,09,14,22,53,13.50
2011,09,14,22,54,13.50
2011,09,14,22,55,13.50
2011,09,14,22,56,13.50
2011,09,14,22,57,13.40
2011,09,14,22,58,13.40
2011,09,14,22,59,13.40
2011,09,14,23,00,13.40
2011,09,14,23,01,13.40
2011,09,14,23,02,13.40
2011,09,14,23,03,13.40
2011,09,14,23,04,13.40
2011,09,14,23,05,13.40
2011,09,14,23,06,13.40
2011,09,14,23,07,13.40
2011,09,14,23,08,13.40
2011,09,14,23,09,13.40
2011,09,14,23,10,13.50
2011,09,14,23,11,13.50
2011,09,14,23,12,13.50
2011,09,14,23,13,13.50
2011,09,14,23,14,13.50
2011,09,14,23,15,13.50
2011,09,14,23,16,13.50
2011,09,14,23,17,13.50
2011,09,14,23,18,13.50
2011,09,14,23,19,13.50
2011,09,14,23,20,13.50
2011,09,14,23,21,13.50
2011,09,14,23,22,13.50
2011,09,14,23,23,13.50
2011,09,14,23,24,13.50
2011,09,14,23,25,13.50
2011,09,14,23,26,13.50
2011,09,14,23,27,13.50
2011,09,14,23,28,13.50
2011,09,14,23,29,13.50
2011,09,14,23,30,13.40
2011,09,14,23,31,13.40
2011,09,14,23,32,13.30
2011,09,14,23,33,13.30
2011,09,14,23,34,13.30
2011,09,14,23,35,13.30
2011,09,14,23,36,13.30
2011,09,14,23,37,13.30
2011,09,14,23,38,13.30
2011,09,14,23,39,13.20
2011,09,14,23,40,13.20
2011,09,14,23,41,13.20
2011,09,14,23,42,13.20
2011,09,14,23,43,13.20
2011,09,14,23,44,13.20
2011,09,14,23,45,13.20
2011,09,14,23,46,13.20
2011,09,14,23,47,13.20
2011,09,14,23,48,13.20
2011,09,14,23,49,13.20
2011,09,14,23,50,13.20
2011,09,14,23,51,13.20
2011,09,14,23,52,13.20
2011,09,14,23,53,13.20
2011,09,14,23,54,13.20
2011,09,14,23,55,13.20
2011,09,14,23,56,13.20
2011,09,14,23,57,13.10
2011,09,14,23,58,13.10
2011,09,14,23,59,13.10
